Home > Weather > Mannheim > Past weeks

Flag for Germany Weather for the Past 2 Weeks in Mannheim, Baden-Württemberg, Germany

Now
54 °F

Passing clouds.


Feels Like: 51 °F
Forecast: 39 / 54 °F
Wind: 8 mph from West

Location: Mannheim City

Current Time: Apr 29, 2016 at 2:35:53 PM

Latest Report: Apr 29, 2016 at 1:50 PM


Visibility: N/A

Pressure: 30.07 "Hg

Humidity: 41%

Dew Point: 30 °F

Location of MannheimLocation

Historic Weather in Mannheim — Graph

°F

Mannheim Temperature Yesterday

Maximum temperature yesterday: 50 °F (at 1:50 PM)
Minimum temperature yesterday: 36 °F (at 5:50 AM)
Average temperature yesterday: 46 °F

High & Low Weather Summary for the Past Weeks

 TemperatureHumidityPressure
High72 °F (Apr 21, 4:50 PM)100% (Apr 16, 7:50 AM)30.42 "Hg (Apr 16, 7:50 AM)
Low36 °F (Apr 25, 6:50 AM)23% (Apr 21, 4:50 PM)29.59 "Hg (Apr 26, 5:50 AM)
Average51 °F63%29.97 "Hg
* Reported Apr 14 1:20 PM — Apr 29 1:20 PM, Mannheim, Weather by CustomWeather, © 2016

Note: Actual official high and low records may vary slightly from our data, if they occured in-between our weather recording intervals... More about our weather records

Advertising

Mannheim Weather History for the Previous 24 Hours

Scroll right to see more
 ConditionsComfort  
Time TempWeatherWind HumidityBarometerVisibility
1:20 PM
Fri, Apr 29
54 °FPassing clouds.7 mph41%30.07 "HgN/A
12:50 PM54 °FPassing clouds.8 mph41%30.07 "HgN/A
12:20 PM54 °FPartly sunny.9 mph44%30.07 "HgN/A
11:50 AM54 °FPassing clouds.9 mph47%30.07 "HgN/A
11:20 AM52 °FPassing clouds.8 mph58%30.07 "HgN/A
10:50 AM50 °FPassing clouds.8 mph62%30.07 "HgN/A
9:50 AM46 °FPassing clouds.8 mph66%30.07 "HgN/A
9:20 AM45 °FPassing clouds.8 mph71%30.07 "HgN/A
8:50 AM45 °FPassing clouds.8 mph71%30.07 "HgN/A
8:20 AM43 °FPassing clouds.8 mph71%30.07 "HgN/A
7:50 AM41 °FPassing clouds.6 mph76%30.07 "HgN/A
6:50 AM39 °FPassing clouds.7 mph75%30.07 "HgN/A
5:50 AM37 °FClear.3 mph81%30.04 "Hg10 mi
5:20 AM36 °FClear.3 mph87%30.04 "Hg10 mi
8:50 PM
Thu, Apr 28
48 °FPassing clouds.5 mph58%30.01 "HgN/A
8:20 PM50 °FPassing clouds.5 mph54%30.01 "HgN/A
7:50 PM50 °FSunny.3 mph50%30.01 "Hg10 mi
7:20 PM50 °FSunny.3 mph50%30.01 "Hg10 mi
6:50 PM50 °FPassing clouds.5 mph50%30.01 "HgN/A
6:20 PM50 °FScattered clouds.6 mph54%30.01 "HgN/A
5:50 PM50 °FScattered showers. Scattered clouds.6 mph58%30.01 "HgN/A
5:20 PM48 °FScattered showers. Scattered clouds.3 mph62%30.01 "HgN/A
4:50 PM46 °FSprinkles. Scattered clouds.3 mph71%30.01 "HgN/A
4:20 PM46 °FSprinkles. Scattered clouds.10 mph66%30.01 "HgN/A
3:50 PM50 °FScattered showers. Scattered clouds.8 mph50%30.01 "HgN/A
2:50 PM50 °FScattered showers. Scattered clouds.10 mph50%30.01 "HgN/A
2:20 PM48 °FScattered clouds.9 mph50%30.01 "HgN/A
Weather by CustomWeather, © 2016

See weather overviewHow to use our weather pages